Weather reports worldwide

Advertisment
Ueckermünde, Germany (10193): temperature & dewpoint: 13.12.2018 05:00:00 - 19.12.2018 05:00:00 (CET)Ueckermünde, Germany (10193): temperature 5cm & temperature -5cm: 13.12.2018 05:00:00 - 19.12.2018 05:00:00 (CET)Ueckermünde, Germany (10193): temperature -20cm & temperature -100cm: 13.12.2018 05:00:00 - 19.12.2018 05:00:00 (CET)Ueckermünde, Germany (10193): wind speed & gusts: 13.12.2018 05:00:00 - 19.12.2018 05:00:00 (CET)Ueckermünde, Germany (10193): wind direction: 13.12.2018 05:00:00 - 19.12.2018 05:00:00 (CET)Ueckermünde, Germany (10193): reduced air pressure: 13.12.2018 05:00:00 - 19.12.2018 05:00:00 (CET)Ueckermünde, Germany (10193): visibility: 13.12.2018 05:00:00 - 19.12.2018 05:00:00 (CET)Ueckermünde, Germany (10193): sunshine duration: 13.12.2018 05:00:00 - 19.12.2018 05:00:00 (CET)Ueckermünde, Germany (10193): precipitation: 13.12.2018 05:00:00 - 19.12.2018 05:00:00 (CET)
Date & Time tt [°C] td [°C] tt 5cm [°C] tt -5cm [°C] tt -20cm [°C] tt -100cm [°C] ff [km/h] ff [kn] fx [km/h] fx [kn] dd ppp [hPa] vv [km] sd [min] rr [mm]
19.12.2018 05:00:00 1,5 0,6 0,4 1,4 2,6 6,2 13 7 27 15 SE 1021,2 4,7 0 0,0
19.12.2018 04:00:00 1,9 0,9 1,6 1,9 2,5 6,3 13 7 24 13 SE 1022,1 6 0 0,0
19.12.2018 03:00:00 1,9 1,2 1,9 2,1 2,5 6,3 14 8 25 14 SSE 1022,9 4,5 0 0,0
19.12.2018 02:00:00 2,4 2,0 2,4 2,1 2,4 6,3 13 7 26 14 SE 1022,6 3,2 0 0,0
19.12.2018 01:00:00 2,4 2,1 2,5 2,0 2,3 6,3 14 8 25 14 SE 1023,0 1,9 0 0,0
19.12.2018 00:00:00 2,5 2,2 2,6 1,9 2,2 6,3 15 8 24 13 SSE 1023,8 0,9 0 0,0
18.12.2018 23:00:00 2,4 2,2 2,4 1,6 2,1 6,3 14 7 24 13 SSE 1024,0 0,5 0 0,0
18.12.2018 22:00:00 2,4 2,2 2,4 1,2 2,0 6,3 14 7 21 11 SSE 1024,5 0,4 0 0,0
18.12.2018 21:00:00 2,2 1,9 2,2 0,7 2,0 6,3 10 5 16 9 S 1025,0 0,8 0 0,0
18.12.2018 20:00:00 2,2 1,9 2,1 0,6 1,9 6,3 10 5 16 9 SSE 1025,2 0,9 0 0,0
18.12.2018 19:00:00 2,0 1,9 2,0 0,5 1,9 6,3 8 5 16 9 SSE 1025,2 0,5 0 0,0
18.12.2018 18:00:00 2,1 1,8 2,0 0,4 1,9 6,3 13 7 19 11 SSE 1025,1 1,1 0 0,0
18.12.2018 17:00:00 2,0 1,7 1,9 0,4 1,9 6,3 13 7 19 11 SSE 1025,0 1,0 0 0,0
18.12.2018 16:00:00 1,9 1,7 1,8 0,4 1,9 6,3 10 5 18 10 S 1025,4 0,7 0 0,0
18.12.2018 15:00:00 1,9 1,6 1,9 0,4 1,9 6,4 9 5 16 9 SE 1025,0 0,7 0 0,0
18.12.2018 14:00:00 1,8 1,5 1,7 0,4 1,9 6,4 9 5 13 7 SSE 1025,3 0,8 0 0,0
18.12.2018 13:00:00 1,5 1,2 1,5 0,4 1,9 6,4 6 3 14 8 S 1025,6 0,7 0 0,0
18.12.2018 12:00:00 1,3 1,0 1,3 0,4 1,9 6,4 7 4 18 10 S 1025,9 0,8 0 0,0
18.12.2018 11:00:00 1,0 0,7 1,1 0,4 1,9 6,4 12 7 18 10 SSE 1026,0 0,6 0 0,0
18.12.2018 10:00:00 0,9 0,3 0,8 0,4 1,9 6,4 10 5 17 9 SSE 1026,0 1,6 0 0,0
18.12.2018 09:00:00 0,7 0,1 0,6 0,4 1,9 6,4 5 3 13 7 SE 1025,7 1,7 0 0,1
18.12.2018 08:00:00 0,6 0,0 0,4 0,4 1,9 6,4 7 4 13 7 SSE 1025,6 1,5 0 0,1
18.12.2018 07:00:00 0,5 -0,2 0,4 0,4 1,9 6,4 7 4 13 7 SE 1025,4 1,8 0 0,3
18.12.2018 06:00:00 0,4 -0,6 0,2 0,3 1,9 6,4 7 4 13 7 SE 1025,0 2,1 0 0,0
18.12.2018 05:00:00 0,3 -1,0 0,2 0,3 1,9 6,4 6 3 11 6 SE 1025,1 2,7 0 0,0
18.12.2018 04:00:00 0,2 -1,1 0,1 0,3 1,9 6,4 7 4 14 8 SSE 1025,2 2,9 0 0,0
18.12.2018 03:00:00 0,1 -1,4 0,1 0,3 1,9 6,5 7 4 11 6 SSE 1025,3 3,4 0 0,0
18.12.2018 02:00:00 0,0 -1,3 -0,1 0,3 1,9 6,5 4 2 18 10 S 1025,1 3,5 0 0,0
18.12.2018 01:00:00 0,0 -1,6 -0,1 0,3 1,9 6,5 8 4 14 7 SE 1024,8 3,7 0 0,0
18.12.2018 00:00:00 0,1 -1,7 0,0 0,3 2,0 6,5 7 4 14 7 SE 1025,0 4,0 0 0,0
17.12.2018 23:00:00 0,0 -1,7 -0,1 0,3 2,0 6,5 7 4 13 7 SSE 1025,0 4,4 0 0,0
17.12.2018 22:00:00 -0,2 -1,9 -0,2 0,3 2,0 6,5 9 5 14 7 SSE 1025,1 4,4 0 0,0
17.12.2018 21:00:00 -0,4 -1,8 -0,4 0,3 2,0 6,5 8 4 13 7 SSE 1024,9 4,1 0 0,0
17.12.2018 20:00:00 -0,5 -2,0 -0,5 0,3 2,0 6,5 8 4 15 8 SSE 1024,5 3,8 0 0,0
17.12.2018 19:00:00 -0,5 -2,3 -0,5 0,3 2,0 6,5 7 4 11 6 SSE 1023,8 4,7 0 0,0
17.12.2018 18:00:00 -0,3 -2,5 -0,5 0,3 2,0 6,5 4 2 8 4 ESE 1023,5 6 0 0,0
17.12.2018 17:00:00 -0,4 -2,5 -0,6 0,3 2,0 6,5 3 2 10 5 ESE 1022,9 5 0 0,0
17.12.2018 16:00:00 -0,3 -2,8 -0,4 0,3 2,0 6,6 7 4 11 6 SSE 1022,5 7 0 0,0
17.12.2018 15:00:00 -0,3 -3,0 -0,4 0,3 2,0 6,6 6 3 10 6 S 1021,8 7 0 0,0
17.12.2018 14:00:00 -0,2 -2,6 -0,4 0,3 2,0 6,6 4 2 8 5 SE 1021,3 6 0 0,0
17.12.2018 13:00:00 -0,7 -3,0 -1,0 0,3 2,0 6,6 5 3 8 5 SSE 1020,9 6 1 0,0
17.12.2018 12:00:00 -1,3 -3,3 -1,9 0,3 2,0 6,6 5 3 9 5 S 1020,9 6 0 0,0
17.12.2018 11:00:00 -1,4 -3,5 -1,8 0,3 2,0 6,6 5 3 10 5 SSE 1020,9 7 0 0,0
17.12.2018 10:00:00 -1,5 -3,8 -1,5 0,3 2,0 6,6 7 4 11 6 SSE 1020,6 7 0 0,0
17.12.2018 09:00:00 -1,7 -4,0 -1,7 0,3 2,0 6,6 8 4 11 6 SSE 1019,8 8 0 0,0
17.12.2018 08:00:00 -1,8 -4,2 -2,1 0,3 2,0 6,6 6 4 10 5 SSE 1019,1 8 0 0,0
17.12.2018 07:00:00 -1,7 -4,4 -1,9 0,3 2,1 6,6 7 4 11 6 SSE 1018,5 9 0 0,0
17.12.2018 06:00:00 -1,5 -4,5 -1,8 0,3 2,1 6,7 7 4 12 7 SE 1017,9 9 0 0,0
17.12.2018 05:00:00 -1,6 -4,7 -1,9 0,3 2,1 6,7 5 3 11 6 SE 1017,8 10 0 0,0
17.12.2018 04:00:00 -1,8 -4,9 -3,2 0,4 2,1 6,7 6 3 11 6 ESE 1017,3 10 0 0,0
17.12.2018 03:00:00 -1,3 -4,9 -2,1 0,4 2,1 6,7 7 4 14 8 SE 1017,2 11 0 0,0
17.12.2018 02:00:00 -1,0 -4,8 -1,5 0,4 2,1 6,7 5 3 12 6 SE 1017,0 12 0 0,0
17.12.2018 01:00:00 -0,9 -5,0 -1,3 0,4 2,1 6,7 5 3 10 6 SE 1016,7 12 0 0,0
17.12.2018 00:00:00 -0,8 -5,0 -1,2 0,5 2,1 6,7 6 3 11 6 ESE 1016,6 13 0 0,0
16.12.2018 23:00:00 -0,7 -5,2 -1,0 0,5 2,1 6,7 6 3 15 8 SE 1016,4 14 0 0,0
16.12.2018 22:00:00 -0,6 -5,4 -0,9 0,5 2,1 6,7 7 4 18 10 SE 1016,3 13 0 0,0
16.12.2018 21:00:00 -0,6 -5,4 -0,8 0,5 2,2 6,7 7 4 16 9 SE 1016,2 14 0 0,0
16.12.2018 20:00:00 -0,6 -5,6 -0,8 0,5 2,2 6,7 10 5 18 10 SE 1016,0 15 0 0,0
16.12.2018 19:00:00 -0,6 -5,7 -0,8 0,5 2,2 6,8 9 5 25 13 ESE 1016,1 16 0 0,0
16.12.2018 18:00:00 -0,5 -6,0 -0,7 0,5 2,2 6,8 10 6 19 11 SE 1016,2 21 0 0,0
16.12.2018 17:00:00 -0,4 -5,2 -0,6 0,5 2,2 6,8 11 6 20 11 SE 1015,9 19 0 0,0
16.12.2018 16:00:00 -0,2 -4,2 -0,5 0,5 2,2 6,8 6 3 14 8 SE 1015,9 14 0 0,0
16.12.2018 15:00:00 -0,1 -4,3 -0,2 0,5 2,2 6,8 8 4 18 10 ESE 1016,1 14 0 0,0
16.12.2018 14:00:00 0,0 -4,0 -0,1 0,5 2,2 6,8 9 5 18 10 SE 1016,4 11 0 0,0
16.12.2018 13:00:00 0,1 -3,6 0,1 0,5 2,2 6,8 10 5 17 9 SE 1017,1 10 0 0,0
16.12.2018 12:00:00 0,0 -3,6 0,0 0,5 2,2 6,8 8 4 16 8 ESE 1017,9 11 0 0,0
16.12.2018 11:00:00 -0,1 -3,8 -0,1 0,5 2,3 6,8 7 4 16 9 ESE 1018,8 12 0 0,0
16.12.2018 10:00:00 -0,3 -3,9 -0,4 0,5 2,3 6,8 9 5 16 9 ESE 1019,0 12 0 0,0
16.12.2018 09:00:00 -0,7 -4,1 -0,9 0,5 2,3 6,9 9 5 15 8 ESE 1019,7 11 0 0,0
16.12.2018 08:00:00 -1,3 -4,5 -3,3 0,5 2,3 6,9 7 4 16 9 ESE 1019,9 12 0 0,0
16.12.2018 07:00:00 -0,6 -4,3 -1,1 0,5 2,3 6,9 8 4 14 8 ESE 1020,7 11 0 0,0
16.12.2018 06:00:00 -1,4 -3,9 -2,2 0,6 2,4 6,9 6 3 19 11 SE 1021,6 9 0 0,0
16.12.2018 05:00:00 -0,9 -3,8 -1,9 0,6 2,4 6,9 13 7 27 14 SE 1021,9 9 0 0,0
16.12.2018 04:00:00 -1,2 -3,1 -2,0 0,6 2,4 6,9 11 6 19 11 ESE 1022,6 7 0 0,0
16.12.2018 03:00:00 -0,9 -2,8 -2,2 0,7 2,4 6,9 9 5 19 10 ESE 1023,5 8 0 0,0
16.12.2018 02:00:00 -0,1 -2,2 -1,0 0,7 2,4 6,9 10 6 21 12 ESE 1024,0 8 0 0,0
16.12.2018 01:00:00 0,2 -1,9 -0,3 0,7 2,5 6,9 8 4 16 9 E 1024,5 8 0 0,0
16.12.2018 00:00:00 0,3 -1,8 0,0 0,7 2,5 6,9 9 5 18 10 ESE 1025,3 8 0 0,0
15.12.2018 23:00:00 0,3 -1,7 -0,1 0,7 2,5 7,0 6 3 15 8 ESE 1026,2 8 0 0,0
15.12.2018 22:00:00 0,4 -1,8 0,1 0,8 2,5 7,0 7 4 16 9 ESE 1026,7 9 0 0,0
15.12.2018 21:00:00 0,3 -1,4 0,0 0,8 2,5 7,0 7 4 11 6 ESE 1027,3 7 0 0,0
15.12.2018 20:00:00 0,3 -1,1 0,1 0,9 2,5 7,0 5 3 8 4 ESE 1027,7 6 0 0,0
15.12.2018 19:00:00 0,3 -1,0 0,1 1,0 2,5 7,0 3 2 11 6 ESE 1028,3 8 0 0,0
15.12.2018 18:00:00 0,5 -0,9 0,2 1,0 2,5 7,0 3 2 6 4 ESE 1028,7 9 0 0,0
15.12.2018 17:00:00 0,3 -1,2 -0,1 1,0 2,5 7,0 0 0 6 3 N 1029,1 15 0 0,0
15.12.2018 16:00:00 0,4 -1,0 0,3 1,0 2,5 7,0 0 0 4 2 N 1029,4 12 0 0,0
15.12.2018 15:00:00 0,4 -1,0 0,4 0,8 2,5 7,0 2 1 7 4 N 1029,4 16 0 0,0
15.12.2018 14:00:00 0,6 -0,8 0,6 0,7 2,5 7,0 3 2 5 3 N 1029,5 11 0 0,0
15.12.2018 13:00:00 0,5 -1,0 0,5 0,7 2,5 7,1 4 2 9 5 NNE 1030,0 11 0 0,0
15.12.2018 12:00:00 0,7 -1,6 0,7 0,7 2,5 7,1 6 3 11 6 NNE 1030,5 23 0 0,0
15.12.2018 11:00:00 0,2 -1,6 0,2 0,7 2,6 7,1 0 0 4 2 N 1031,1 12 0 0,0
15.12.2018 10:00:00 -0,2 -1,7 -0,1 0,7 2,6 7,1 3 2 4 2 W 1031,1 9 0 0,0
15.12.2018 09:00:00 -0,8 -2,1 -0,8 0,7 2,6 7,1 2 1 3 2 W 1031,1 13 0 0,0
15.12.2018 08:00:00 -0,9 -2,8 -1,1 0,7 2,6 7,1 0 0 4 2 N 1030,9 18 0 0,0
15.12.2018 07:00:00 -1,5 -3,0 -1,6 0,7 2,6 7,1 3 1 4 2 W 1030,7 19 0 0,0
15.12.2018 06:00:00 -1,6 -3,6 -2,5 0,7 2,7 7,1 4 2 8 4 S 1030,6 24 0 0,0
15.12.2018 05:00:00 -0,4 -3,5 -2,3 0,7 2,7 7,1 5 3 18 10 SE 1030,6 28 0 0,0
15.12.2018 04:00:00 0,4 -3,3 0,1 0,8 2,7 7,1 9 5 16 9 ENE 1030,5 33 0 0,0
15.12.2018 03:00:00 0,2 -3,8 0,0 0,8 2,7 7,1 9 5 15 8 ENE 1030,6 35 0 0,0
15.12.2018 02:00:00 -0,2 -4,1 -0,4 0,8 2,8 7,1 7 4 12 7 E 1030,6 34 0 0,0
15.12.2018 01:00:00 -0,4 -4,0 -0,6 0,8 2,8 7,2 4 2 8 4 ESE 1030,7 28 0 0,0
15.12.2018 00:00:00 -0,4 -4,1 -0,7 0,8 2,8 7,2 4 2 11 6 SE 1030,4 26 0 0,0
14.12.2018 23:00:00 -0,3 -4,2 -0,5 0,8 2,9 7,2 7 4 16 8 SE 1030,5 28 0 0,0
14.12.2018 22:00:00 -0,2 -3,5 -0,4 0,8 2,9 7,2 7 4 15 8 E 1030,5 22 0 0,0
14.12.2018 21:00:00 -0,1 -2,8 -0,3 0,9 3,0 7,2 9 5 15 8 E 1030,2 17 0 0,0
14.12.2018 20:00:00 0,1 -2,5 -0,1 0,9 3,0 7,2 9 5 19 11 E 1029,9 16 0 0,0
14.12.2018 19:00:00 0,2 -2,3 0,0 0,9 3,1 7,2 14 8 23 12 E 1029,6 17 0 0,0
14.12.2018 18:00:00 0,1 -2,6 -0,1 1,0 3,2 7,2 9 5 15 8 E 1029,5 18 0 0,0
14.12.2018 17:00:00 0,1 -2,5 0,0 1,2 3,2 7,2 9 5 17 9 E 1029,3 17 0 0,0
14.12.2018 16:00:00 0,2 -2,5 0,0 1,4 3,2 7,2 7 4 14 8 E 1028,9 17 0 0,0
14.12.2018 15:00:00 0,2 -2,4 0,2 1,6 3,2 7,2 8 4 16 8 E 1028,6 17 0 0,0
14.12.2018 14:00:00 0,3 -2,5 0,3 1,8 3,2 7,2 7 4 14 8 E 1028,4 17 0 0,0
14.12.2018 13:00:00 0,4 -2,8 0,5 1,7 3,3 7,2 9 5 15 8 E 1028,1 19 0 0,0
14.12.2018 12:00:00 0,1 -2,6 0,2 1,5 3,3 7,2 8 4 13 7 E 1028,1 16 0 0,0
14.12.2018 11:00:00 -0,1 -2,1 -0,1 1,3 3,3 7,3 6 3 13 7 ESE 1028,1 11 0 0,0
14.12.2018 10:00:00 -0,1 -2,2 -0,3 1,3 3,4 7,3 7 4 21 11 SE 1027,7 13 0 0,1
14.12.2018 09:00:00 0,4 -1,6 0,2 1,4 3,4 7,3 4 2 8 4 ESE 1027,0 8 0 0,0
14.12.2018 08:00:00 0,4 -1,3 0,2 1,5 3,5 7,3 4 2 11 6 SE 1026,6 8 0 0,0
14.12.2018 07:00:00 0,6 -1,1 0,4 1,5 3,5 7,3 6 3 10 6 ESE 1026,1 6 0 0,0
14.12.2018 06:00:00 0,9 -1,0 0,6 1,6 3,5 7,3 6 4 13 7 SE 1025,9 14 0 0,0
14.12.2018 05:00:00 1,1 -1,2 0,8 1,6 3,6 7,3 6 4 14 8 E 1025,9 14 0 0,0
14.12.2018 04:00:00 1,5 -1,4 1,1 1,7 3,6 7,3 9 5 16 9 ENE 1025,8 24 0 0,0
14.12.2018 03:00:00 1,5 -1,9 1,1 1,7 3,7 7,3 8 5 15 8 E 1026,1 30 0 0,0
14.12.2018 02:00:00 1,3 -2,5 0,5 1,8 3,8 7,3 4 2 15 8 E 1025,8 35 0 0,0
14.12.2018 01:00:00 1,2 -1,9 0,8 1,8 3,8 7,3 5 3 12 6 S 1025,6 26 0 0,0
14.12.2018 00:00:00 1,4 -1,6 1,1 1,9 3,9 7,3 9 5 16 9 ESE 1025,4 22 0 0,0
13.12.2018 23:00:00 1,8 -1,6 1,4 2,0 3,9 7,3 8 4 13 7 E 1025,6 28 0 0,0
13.12.2018 22:00:00 2,1 -1,6 1,7 2,1 4,0 7,3 7 4 17 9 E 1025,5 28 0 0,0
13.12.2018 21:00:00 2,5 -1,4 2,1 2,2 4,1 7,3 11 6 18 10 ENE 1025,2 38 0 0,0
13.12.2018 20:00:00 2,5 -1,6 2,1 2,3 4,1 7,3 9 5 15 8 ENE 1025,1 43 0 0,0
13.12.2018 19:00:00 2,6 -1,9 2,1 2,4 4,2 7,3 10 5 16 8 ENE 1025,0 61 0 0,0
13.12.2018 18:00:00 2,5 -1,2 2,1 2,7 4,3 7,3 9 5 17 9 ENE 1025,0 38 0 0,0
13.12.2018 17:00:00 2,5 -0,8 2,1 2,9 4,3 7,4 11 6 16 9 NE 1025,0 48 0 0,0
13.12.2018 16:00:00 2,5 -1,0 2,1 3,3 4,3 7,4 5 3 13 7 ENE 1025,0 57 0 0,0
13.12.2018 15:00:00 2,6 -0,3 2,4 3,8 4,3 7,4 6 3 14 8 ENE 1025,2 55 0 0,0
13.12.2018 14:00:00 2,6 0,1 2,8 4,1 4,2 7,4 8 4 14 8 NE 1025,1 35 0 0,0
13.12.2018 13:00:00 2,8 0,3 3,1 3,8 4,1 7,4 9 5 18 10 ENE 1025,5 35 0 0,0
13.12.2018 12:00:00 2,6 0,4 2,9 3,6 4,0 7,4 10 5 21 11 ENE 1025,8 29 0 0,0
13.12.2018 11:00:00 2,4 0,7 2,5 3,1 4,0 7,4 14 8 22 12 E 1026,0 19 0 0,0
13.12.2018 10:00:00 2,2 0,9 2,2 2,7 4,0 7,4 13 7 22 12 E 1026,2 12 0 0,0
13.12.2018 09:00:00 2,4 1,1 2,3 2,5 4,1 7,4 12 6 20 11 ENE 1026,0 17 0 0,0
13.12.2018 08:00:00 2,5 1,1 2,1 2,6 4,1 7,4 13 7 22 12 ENE 1025,8 21 0 0,0
13.12.2018 07:00:00 2,9 1,4 2,6 2,7 4,1 7,4 11 6 19 11 NE 1025,6 57 0 0,0
13.12.2018 06:00:00 2,8 1,3 2,0 2,5 4,1 7,4 8 4 16 8 NNE 1025,8 70 0 0,0
13.12.2018 05:00:00 2,7 1,4 2,3 2,8 4,2 7,4 10 5 21 11 ENE 1026,0 70 0 0,0

tt = temperature
td = dewpoint
tt 5cm = temperature 5cm
tt -5cm = temperature -5cm
tt -20cm = temperature -20cm
tt -100cm = temperature -100cm
ff = wind speed
fx = gusts
dd = wind direction
ppp = reduced air pressure
vv = visibility
sd = sunshine duration
rr = precipitation

Next stations